GFSFLT2_sfc_30mbdewp_000.txt.gz
Dewpoint
51 53 55 54 52 52 51 51 51 51 52 53 54 54 55 55 55 54 51 49 47 46 44 42 38 38 38
50 51 52 54 54 52 51 51 51 50 51 52 54 54 54 54 53 51 49 47 46 44 42 39 38 38 37
48 50 51 52 51 50 50 50 50 50 50 52 53 54 53 53 51 49 47 46 44 42 39 37 36 36 36
48 47 48 50 50 50 48 44 45 45 47 49 51 53 53 51 49 48 46 44 42 40 37 36 35 34 34
45 47 48 47 46 47 47 48 44 47 44 45 49 50 50 50 47 45 44 42 41 40 37 34 34 33 32
43 43 44 46 48 48 48 46 43 43 43 43 45 44 45 46 44 44 42 41 40 37 35 33 33 32 32
41 41 42 44 48 48 47 47 46 40 41 39 38 39 38 40 42 41 41 39 37 35 33 33 32 32 31
40 40 41 43 45 45 46 46 38 37 39 36 34 35 34 37 41 40 38 36 35 33 33 32 31 31 31
41 42 43 43 44 44 42 40 38 33 33 31 30 29 31 32 35 37 36 35 32 31 31 31 31 30 30
39 41 42 43 41 40 41 40 38 31 31 31 28 28 27 28 30 31 34 31 29 30 30 31 31 30 29
37 39 41 35 34 34 35 39 37 33 32 31 28 26 26 23 25 26 20 21 24 27 29 30 29 29 26
33 34 33 32 32 32 32 32 33 33 33 31 27 25 23 22 20 18 17 18 18 18 18 20 25 26 26
31 32 33 31 29 28 29 28 27 27 27 28 27 26 25 19 17 16 16 18 18 17 18 18 17 19 19
31 32 31 28 27 27 27 27 25 23 25 26 25 23 19 19 18 18 17 13 19 19 19 19 19 18 17
30 29 29 26 25 26 26 25 23 22 22 23 24 22 20 19 15 16 17 17 19 19 19 17 17 18 18
29 28 27 25 24 25 26 25 22 22 21 22 22 17 12 15 21 18 19 18 19 19 19 18 17 17 18
27 27 26 25 26 24 25 24 23 21 20 20 17 9 -3 -7 10 23 18 19 20 19 19 18 17 17 18

GFSFLT2_sfc_30mbdewp_003.txt.gz
Dewpoint
45 46 48 49 51 54 53 53 53 53 54 54 54 54 54 54 54 55 55 55 55 56 56 54 51 49 46
43 44 45 47 49 51 53 53 52 52 52 53 53 54 54 55 54 55 55 55 55 55 55 53 51 49 45
42 43 44 46 48 49 51 52 52 51 51 52 52 53 54 54 54 54 54 55 54 53 52 51 50 46 44
37 40 41 43 45 47 48 48 48 48 48 48 49 51 53 52 53 54 54 53 52 51 50 49 46 44 43
34 36 37 38 40 42 44 46 48 47 46 46 46 47 49 51 52 53 52 51 50 49 47 45 44 42 40
33 34 35 37 39 40 41 41 41 45 45 45 44 45 47 50 51 51 48 48 47 46 45 43 41 40 38
34 36 36 37 38 38 37 40 42 44 43 42 41 42 42 45 49 48 47 46 45 44 43 41 39 38 37
36 38 38 39 41 41 41 41 42 43 41 39 39 39 36 39 46 45 43 42 42 41 40 39 39 38 36
36 36 36 36 39 41 40 39 38 40 37 38 32 31 32 35 42 42 41 41 40 39 39 39 36 35 34
33 34 33 35 37 37 36 33 34 35 34 34 29 28 28 29 32 38 37 37 37 38 39 37 35 32 31
31 31 31 32 34 35 34 32 31 32 36 34 29 28 27 24 26 28 31 33 35 37 34 33 32 32 30
30 30 30 31 32 32 30 30 30 29 33 33 28 27 24 22 22 24 24 26 27 24 26 30 32 33 31
28 29 31 31 31 28 29 29 27 26 26 28 28 27 26 22 21 21 22 21 18 20 19 22 23 23 26
28 30 30 29 28 28 26 26 24 23 25 26 25 25 22 22 23 22 21 20 19 18 18 17 18 18 19
28 28 27 27 27 27 26 26 23 21 21 23 24 23 22 21 20 20 18 18 19 19 18 17 18 18 18
27 27 26 26 26 25 26 24 22 22 21 22 21 20 15 18 20 17 17 18 19 19 18 16 16 17 18
27 27 26 25 25 24 25 24 22 21 20 19 16 7 -2 -2 12 21 17 18 18 19 19 18 17 18 19

GFSFLT2_sfc_30mbdewp_006.txt.gz
Dewpoint
29 28 33 39 44 46 46 48 50 52 53 53 54 54 54 55 56 56 56 56 56 56 56 56 56 57 58
30 31 35 36 38 41 43 45 48 50 51 52 54 54 54 54 54 55 55 56 56 56 56 55 56 58 57
31 33 33 33 37 38 38 39 44 48 50 52 51 52 53 53 53 53 54 55 55 55 56 56 56 57 56
31 31 31 33 34 34 34 37 38 41 44 46 49 50 50 51 52 52 53 54 54 54 55 55 55 56 55
31 29 29 30 31 33 35 37 38 38 40 42 46 47 47 48 48 50 50 50 52 53 54 55 55 55 53
28 27 27 28 33 35 36 35 34 37 40 41 43 44 45 45 47 48 49 50 51 52 53 54 52 51 50
25 27 28 31 36 34 33 34 33 35 37 37 40 41 42 43 45 47 48 49 51 52 51 49 48 47 46
30 33 33 36 32 33 34 35 37 39 40 38 40 40 40 39 41 43 46 48 50 49 47 45 44 43 43
29 30 31 30 31 33 32 32 30 32 36 37 38 36 32 34 37 42 47 47 46 44 43 42 42 41 40
29 30 29 29 30 33 33 30 29 28 34 34 33 31 31 29 32 39 43 44 43 42 42 41 40 38 37
26 28 28 30 32 33 33 31 28 27 30 33 31 30 30 27 27 29 35 38 38 39 39 39 39 37 35
24 25 27 26 29 29 30 31 29 27 27 26 27 30 26 24 25 25 27 30 32 34 37 39 39 37 34
23 24 25 26 30 27 29 29 28 27 25 25 28 27 26 25 22 22 24 25 29 30 32 32 32 35 33
23 23 24 26 27 27 27 26 25 24 25 26 24 25 23 24 25 23 24 24 24 26 27 24 24 26 29
21 21 22 26 26 25 26 25 23 22 21 23 24 24 24 24 22 22 22 22 23 22 22 20 18 18 20
20 21 22 25 24 25 26 24 22 21 21 21 20 20 20 22 24 20 20 20 21 19 17 16 15 18 17
21 22 22 25 24 24 24 24 21 20 19 19 16 14 6 10 18 22 19 19 18 18 17 16 15 16 17

GFSFLT2_sfc_30mbdewp_012.txt.gz
Dewpoint
24 23 22 22 22 23 26 27 27 27 29 34 34 38 40 44 42 45 47 49 50 51 53 54 55 56 59
23 22 23 24 25 23 23 23 25 25 26 28 31 36 39 41 44 41 43 44 48 51 53 53 54 55 58
24 25 25 24 24 25 24 22 24 27 27 27 31 35 37 40 40 40 42 45 47 50 52 53 53 54 54
25 25 25 24 23 22 23 26 27 28 29 31 32 36 34 36 39 41 44 43 47 50 50 51 52 53 53
26 24 21 20 21 23 23 24 27 28 32 31 31 33 34 33 35 38 40 41 46 47 47 48 49 49 52
26 22 20 21 22 22 24 25 24 27 27 29 29 31 33 33 34 38 40 41 43 45 45 46 46 48 49
22 21 20 22 24 25 27 25 25 26 28 28 31 31 32 33 33 34 39 42 43 44 45 44 44 45 48
19 22 26 25 23 23 26 28 29 29 29 29 30 29 31 34 36 37 39 41 41 42 43 43 43 44 46
22 21 19 20 22 26 26 26 24 26 27 29 29 30 32 29 32 36 37 38 39 40 40 41 43 44 46
19 18 19 21 21 24 27 25 24 23 25 28 26 28 25 30 33 33 33 33 37 44 45 43 44 45 46
18 19 20 21 22 24 25 25 24 23 25 29 27 27 25 25 27 31 32 33 38 43 44 44 43 43 42
19 19 20 21 23 23 24 25 26 26 27 31 27 26 24 23 23 28 31 31 37 38 39 40 41 41 41
20 20 20 21 23 23 24 25 26 28 31 31 27 25 25 23 23 29 29 30 33 35 35 35 36 38 38
21 21 21 21 22 22 24 24 25 27 31 28 27 26 24 25 27 29 30 28 30 32 33 33 34 35 36
21 20 20 21 22 23 24 25 25 25 24 26 27 27 28 27 27 29 28 27 29 30 31 29 32 33 34
20 20 21 21 21 23 25 26 23 22 22 22 23 24 26 25 27 26 26 26 28 30 30 28 28 33 35
20 21 21 21 22 25 25 24 23 22 21 20 19 19 21 18 23 27 25 26 27 26 27 26 25 29 34

GFSFLT2_sfc_30mbdewp_015.txt.gz
Dewpoint
21 23 25 23 24 25 25 26 25 24 23 24 24 27 28 30 32 33 35 38 40 42 42 46 50 51 53
22 23 23 24 24 25 23 22 22 24 23 22 26 29 28 30 33 37 38 39 41 39 40 42 45 50 52
23 24 24 25 25 24 20 20 21 23 24 22 22 27 29 32 33 35 37 39 40 39 44 46 46 48 51
23 24 25 25 24 21 19 19 21 21 22 24 25 25 30 30 32 31 34 35 34 37 42 42 47 49 50
26 26 24 21 20 20 19 21 22 23 24 25 26 28 28 27 28 31 33 33 33 37 41 42 45 48 48
28 26 21 20 18 20 22 24 22 23 23 23 25 26 27 29 30 31 31 32 34 35 37 40 44 45 46
22 22 17 19 24 25 25 21 20 21 25 24 28 28 31 28 27 28 32 35 35 36 39 42 44 45 45
19 18 20 24 24 20 21 26 26 26 25 26 27 29 27 29 27 30 28 34 37 40 40 42 44 44 44
20 19 19 19 19 21 24 23 21 22 23 23 25 26 26 28 28 30 34 30 34 35 34 37 39 41 41
19 17 18 19 19 21 24 22 22 20 21 22 23 25 24 25 29 28 28 31 33 36 37 39 40 41 41
17 18 19 20 21 22 22 24 22 21 22 23 24 25 25 25 26 28 27 33 32 33 44 45 44 43 42
18 19 19 20 21 22 22 23 24 24 25 26 25 25 25 23 21 24 25 32 31 34 37 42 44 45 44
21 20 20 21 22 22 24 25 25 25 27 28 28 28 25 22 22 22 26 30 31 32 33 34 36 39 38
20 21 20 20 21 23 23 23 24 24 30 28 27 26 24 24 25 24 29 27 30 31 32 32 34 36 37
20 20 20 21 21 22 23 25 24 23 23 24 26 27 27 27 26 28 28 28 30 31 32 31 31 34 37
20 20 20 20 20 23 25 25 24 23 22 21 22 21 25 26 28 26 27 28 30 31 32 31 30 34 37
20 20 20 21 21 23 24 25 24 22 22 21 20 18 21 18 23 28 26 27 28 27 28 29 30 32 36

GFSFLT2_sfc_30mbdewp_018.txt.gz
Dewpoint
19 19 22 23 22 23 24 25 25 25 22 22 22 22 23 25 28 28 30 30 31 31 35 36 37 43 41
22 24 23 23 23 24 25 24 25 22 21 20 20 21 25 24 23 24 28 29 31 35 35 38 40 41 40
23 25 24 24 24 25 24 22 20 19 18 20 21 23 23 24 26 27 28 31 35 34 32 38 37 37 37
25 27 24 25 28 25 20 18 17 19 21 23 23 22 23 23 24 26 27 28 28 30 32 35 36 39 39
27 24 24 22 21 20 17 17 20 21 23 20 20 21 23 25 25 27 28 29 31 34 35 33 35 36 41
24 20 17 18 21 20 19 20 21 22 18 20 22 23 25 25 28 28 34 29 27 29 31 33 33 37 37
17 17 21 25 24 22 24 24 22 20 22 22 23 24 26 24 24 27 30 32 28 28 33 33 33 33 38
18 21 24 21 19 19 20 22 23 22 22 21 24 21 22 24 25 25 26 28 33 36 35 37 39 39 41
25 22 18 17 18 19 22 21 19 19 20 21 22 21 21 23 25 26 33 31 27 27 30 32 35 36 37
17 15 17 18 19 20 22 20 19 18 18 19 21 22 20 22 25 26 28 29 27 31 32 33 35 35 36
15 17 19 21 21 21 22 23 20 19 20 22 23 22 22 22 23 28 26 26 28 30 33 34 37 37 36
17 20 19 19 20 20 21 22 23 23 25 26 23 23 23 22 20 21 22 26 29 31 31 36 45 42 41
20 19 20 21 21 22 23 23 23 24 27 27 27 26 24 21 21 22 24 25 30 31 32 34 35 38 41
20 20 20 20 20 22 21 22 23 25 26 26 24 24 23 23 24 23 25 26 30 31 32 32 35 38 39
20 19 19 20 20 21 22 23 23 24 23 23 22 23 24 24 23 26 27 28 31 31 32 32 32 36 38
19 19 19 19 19 21 22 21 20 21 22 22 20 18 23 25 27 25 27 27 29 31 32 31 31 33 37
19 19 19 19 19 20 22 21 20 21 21 22 20 18 18 17 23 30 26 27 30 30 31 32 32 33 35

GFSFLT2_sfc_30mbdewp_021.txt.gz
Dewpoint
19 19 21 23 22 23 24 24 24 25 25 26 23 22 22 21 22 23 26 27 28 28 27 31 35 36 36
20 24 24 23 24 25 23 25 28 28 23 21 20 20 20 22 22 24 26 24 26 28 29 27 30 36 38
25 22 24 27 28 29 23 22 22 20 19 18 18 20 22 25 23 22 23 25 26 26 27 31 37 36 34
23 27 24 25 25 17 15 18 20 19 19 20 22 24 21 20 21 23 24 25 26 27 26 30 31 32 32
26 26 20 17 15 16 18 25 21 21 21 24 22 19 20 22 22 23 25 26 30 32 31 30 33 32 34
25 20 17 17 18 21 23 22 20 21 20 20 20 20 21 22 22 24 25 22 24 28 32 31 30 30 30
19 19 19 19 25 25 21 20 20 21 21 20 20 20 22 20 23 22 22 25 27 28 28 28 28 27 29
20 19 25 24 18 18 20 22 22 21 19 18 19 18 19 20 22 22 25 27 30 30 31 34 34 33 32
25 22 17 17 18 21 22 20 17 17 18 18 19 19 20 20 21 23 24 26 27 27 27 27 28 28 30
15 15 17 18 20 20 22 19 18 17 16 19 20 20 19 20 22 24 24 25 26 29 28 28 29 30 31
15 16 18 19 18 20 23 22 19 18 19 22 22 21 21 20 21 23 24 26 25 27 30 32 32 32 30
17 18 18 19 20 22 22 23 24 23 24 25 23 22 21 20 19 20 22 26 28 27 29 32 34 35 34
19 18 19 21 22 22 22 22 22 24 26 27 26 23 21 19 20 21 24 25 28 30 31 31 35 39 35
19 19 20 20 20 21 21 21 22 21 22 25 27 23 20 20 22 21 25 24 28 31 31 32 36 38 39
19 19 19 19 19 20 21 21 21 20 21 23 23 21 21 21 20 24 25 27 30 31 32 32 33 37 38
19 18 19 19 18 20 20 21 21 21 21 23 22 19 20 22 28 25 27 27 31 32 33 31 31 35 37
18 19 18 18 18 19 20 21 21 22 22 23 22 19 17 16 22 31 26 28 31 31 32 31 31 32 34

GFSFLT2_sfc_30mbdewp_024.txt.gz
Dewpoint
20 21 22 24 23 24 24 25 27 27 23 21 21 21 23 24 24 23 22 23 26 29 29 30 31 33 33
25 24 21 21 22 26 28 24 26 19 18 19 22 20 20 21 21 22 24 26 28 31 30 29 29 30 30
20 20 21 25 27 24 18 16 15 16 18 19 20 20 21 24 26 26 29 23 22 23 24 25 26 30 29
23 26 25 28 21 17 15 17 16 18 25 21 22 21 21 22 21 21 22 23 23 24 24 27 27 26 27
22 23 22 18 16 17 17 18 22 24 18 18 19 19 20 20 21 21 21 22 24 25 27 30 32 33 31
25 19 18 18 18 19 21 22 16 18 18 19 20 19 20 20 21 21 23 23 24 27 30 27 26 28 30
20 19 18 20 25 23 19 19 20 20 20 19 19 18 18 18 20 21 22 23 24 27 29 29 30 31 32
17 20 24 20 18 19 21 23 22 19 18 17 18 18 18 19 20 21 22 23 25 27 30 32 31 30 29
23 19 17 18 19 23 21 19 16 15 17 18 18 18 19 20 20 22 23 24 24 25 27 29 30 34 35
15 15 17 17 19 20 22 18 17 16 16 18 19 20 18 19 20 22 21 23 23 27 30 30 29 30 32
15 17 18 18 19 21 23 22 19 18 19 22 21 21 20 20 19 19 21 23 25 27 29 31 32 33 31
18 18 18 19 20 21 22 23 23 22 24 24 22 23 21 20 17 17 20 22 27 27 28 29 31 32 33
18 18 19 20 22 21 21 21 21 22 25 26 25 24 23 19 18 18 20 22 25 28 30 31 31 31 31
19 19 19 19 19 21 20 20 20 20 21 24 25 25 20 19 19 18 21 23 27 30 31 32 36 36 33
18 18 18 18 18 19 20 21 19 20 21 22 24 24 22 21 18 21 24 27 29 31 31 31 33 35 37
17 17 18 18 18 19 20 20 20 21 22 23 23 21 21 21 26 25 28 27 29 32 32 30 30 33 37
17 18 19 17 18 18 19 20 20 23 23 23 22 22 18 18 22 30 28 30 30 31 31 31 30 31 33

GFSFLT2_sfc_30mbdewp_027.txt.gz
Dewpoint
21 22 22 20 20 21 22 23 25 30 24 21 20 20 21 22 26 28 27 27 28 29 28 29 31 31 30
24 20 19 20 21 22 26 32 25 20 18 18 19 21 22 25 23 23 26 26 26 25 25 26 29 31 32
20 21 22 24 24 27 22 17 16 16 18 19 20 22 23 22 23 25 26 28 28 29 31 30 27 27 27
23 25 22 26 25 17 15 16 17 18 19 24 22 19 20 20 20 20 21 22 22 23 24 24 25 26 26
22 24 20 16 15 16 17 19 22 25 19 17 17 18 19 20 20 20 21 22 23 24 25 27 28 28 28
21 18 17 17 17 19 23 20 17 18 17 20 20 18 19 19 20 21 22 23 24 26 29 30 30 30 29
18 17 17 19 25 22 21 20 19 19 21 20 18 17 18 18 19 21 22 23 24 24 25 27 28 27 28
17 20 24 22 18 19 22 23 22 19 17 17 18 17 18 18 20 21 23 23 23 24 24 25 26 30 31
24 20 18 18 20 24 21 19 16 15 17 17 17 18 19 19 20 21 22 22 21 22 24 25 26 27 30
15 15 17 18 20 20 22 18 17 16 15 17 18 20 18 18 20 20 21 22 22 23 26 28 28 30 31
16 17 18 18 19 20 22 22 18 17 18 21 20 19 19 19 19 20 21 21 21 23 27 29 30 31 30
18 18 18 18 19 20 21 22 23 22 23 23 20 20 20 19 18 19 20 22 23 24 26 28 30 32 33
18 17 18 19 20 20 20 21 21 21 23 24 23 23 23 21 19 19 21 21 23 25 28 31 31 31 29
17 18 18 18 18 19 19 19 20 19 21 23 26 25 22 22 21 19 22 21 26 30 31 32 32 32 29
17 17 17 17 17 18 19 20 18 19 20 23 24 24 25 24 21 23 24 28 31 31 31 31 32 33 32
17 16 16 17 17 18 18 19 19 20 21 23 23 22 21 22 26 24 28 30 31 31 32 30 30 33 35
16 16 18 16 17 17 18 19 19 21 23 24 23 21 20 19 23 29 27 30 31 31 31 31 29 31 37

GFSFLT2_sfc_30mbdewp_030.txt.gz
Dewpoint
21 21 23 22 20 21 22 22 23 27 30 23 22 21 21 22 25 27 27 28 28 29 32 32 31 34 34
22 22 20 21 22 24 25 27 27 25 19 19 20 20 21 22 25 26 26 26 26 26 27 28 28 29 30
20 21 22 23 26 25 20 17 15 16 18 19 20 21 23 25 25 25 25 26 27 27 26 27 28 30 31
22 23 26 23 18 15 15 16 16 18 21 22 21 21 20 20 20 20 21 22 22 23 24 25 26 25 26
23 21 18 16 16 16 16 18 22 20 18 18 18 18 18 20 20 20 21 22 23 24 26 27 28 29 28
20 17 16 16 17 18 22 19 17 19 18 21 21 19 19 19 19 20 22 23 24 24 25 27 27 28 30
17 17 17 19 24 23 20 20 19 20 21 20 19 17 17 17 19 20 22 23 24 24 26 28 28 28 27
18 20 25 22 19 20 23 23 22 19 17 17 17 17 17 18 19 21 22 23 23 25 26 27 29 29 28
24 21 19 20 21 23 21 19 16 16 17 17 17 17 18 19 19 21 21 22 22 24 25 25 25 26 27
15 15 17 18 20 19 20 18 17 15 15 18 18 19 16 17 19 19 21 22 23 25 26 28 30 31 31
16 16 18 18 18 19 20 21 18 17 18 21 20 19 19 18 19 20 21 22 24 25 26 29 31 31 29
17 17 17 18 18 19 20 21 21 21 23 23 20 20 19 18 17 20 21 24 25 25 26 27 29 31 32
17 17 17 18 19 19 19 20 20 21 23 23 23 22 22 21 20 21 24 23 24 25 27 29 30 31 30
17 17 17 17 17 18 19 18 19 18 20 22 25 26 23 23 23 22 24 24 28 31 32 32 33 33 31
17 16 16 16 16 17 18 19 18 18 19 22 24 25 25 25 23 24 25 28 31 31 31 30 32 32 30
16 16 15 16 16 17 17 18 18 19 20 23 23 22 21 22 26 25 28 29 30 31 31 30 29 33 32
16 15 17 16 16 16 16 17 18 20 23 22 23 22 20 19 21 25 27 29 30 30 30 30 29 34 33

GFSFLT2_sfc_30mbdewp_033.txt.gz
Dewpoint
20 21 20 20 19 21 23 23 24 23 22 23 22 22 22 24 25 27 27 27 27 28 29 31 33 34 34
21 21 19 20 21 24 24 23 20 18 19 20 21 23 23 23 24 24 25 26 27 29 29 28 29 30 29
20 20 22 24 22 20 16 15 15 17 19 20 21 22 23 24 24 24 24 24 26 25 26 26 28 29 30
22 26 22 20 19 16 16 17 17 19 21 22 21 21 21 22 22 22 22 23 23 24 24 26 28 29 27
24 21 19 16 15 17 17 19 22 20 19 19 19 19 20 21 21 21 21 22 23 24 25 26 27 27 28
22 18 15 16 17 19 23 20 18 19 18 19 20 20 19 19 19 20 22 23 24 24 26 27 27 28 29
18 17 17 19 24 24 21 21 20 20 20 19 18 18 18 17 19 20 22 23 24 25 26 26 28 28 28
19 20 25 26 20 20 22 23 22 19 17 17 18 18 18 19 20 21 22 23 24 26 26 27 28 27 27
23 23 20 20 21 22 21 20 17 16 17 17 17 19 20 20 20 20 21 23 25 27 29 30 30 30 30
16 15 16 17 20 19 21 19 18 16 15 18 19 20 18 17 19 21 22 23 25 26 28 30 32 32 32
15 16 17 18 18 19 20 21 18 18 18 22 20 20 20 20 20 22 23 24 27 28 28 28 30 32 31
16 18 18 18 19 20 21 21 22 21 23 23 21 21 20 19 19 22 24 26 28 29 29 29 29 31 33
18 18 18 19 20 20 20 20 21 22 23 23 23 23 23 22 22 23 24 26 28 29 31 31 31 32 30
18 18 18 18 18 19 18 19 19 19 21 23 26 27 25 24 25 24 26 26 30 31 32 32 33 33 33
17 17 17 17 17 18 19 19 17 18 19 22 25 26 26 26 24 25 26 28 30 31 31 30 31 33 31
17 17 17 16 17 18 18 18 17 18 20 23 24 24 23 23 25 26 27 28 30 31 31 29 30 32 30
17 16 17 17 16 16 17 17 17 19 21 24 24 23 20 20 23 25 28 28 29 29 31 30 30 33 33

GFSFLT2_sfc_30mbdewp_036.txt.gz
Dewpoint
16 17 18 18 17 19 20 21 20 19 20 21 22 23 24 25 26 27 28 30 31 30 31 31 31 31 32
19 19 19 18 21 21 19 16 15 16 18 21 23 23 24 25 26 27 27 28 28 30 30 30 31 31 31
21 20 20 23 21 20 16 15 15 17 19 20 22 23 24 25 25 25 25 25 26 27 27 27 28 30 29
21 23 27 22 18 15 14 17 17 19 21 21 21 21 22 22 23 23 24 24 24 25 26 26 27 28 28
24 27 21 17 13 15 17 19 22 20 19 20 19 20 21 22 21 21 21 23 24 25 26 28 28 28 28
25 19 15 13 16 19 22 24 19 20 18 20 21 20 20 21 20 21 22 23 24 25 25 26 27 28 30
19 15 15 18 23 26 22 20 20 21 21 20 19 19 20 19 20 22 23 25 26 27 28 28 28 29 29
17 17 21 25 24 20 22 22 23 21 19 19 19 19 21 21 22 23 24 25 26 28 29 30 31 31 30
19 24 24 20 20 21 22 21 19 19 19 19 19 21 21 22 22 21 22 24 26 27 30 31 33 33 33
21 16 16 16 19 19 21 21 20 18 17 20 21 20 19 18 22 24 24 25 26 27 29 32 34 33 33
15 15 17 18 19 20 22 23 21 20 20 22 21 21 21 21 22 24 25 26 27 29 30 30 31 33 32
16 17 19 21 21 22 22 23 23 22 23 23 21 22 21 21 20 23 25 28 29 30 31 33 34 34 33
18 20 20 21 22 22 23 23 23 23 24 24 24 24 24 22 22 24 26 27 29 30 32 32 32 32 31
19 19 20 21 20 21 21 20 21 21 23 24 26 27 25 26 25 24 26 27 29 31 32 31 33 34 33
19 19 19 19 19 20 20 21 20 19 21 23 25 27 28 27 25 26 27 28 29 30 31 30 31 33 33
19 19 19 18 19 20 20 20 20 20 21 23 25 25 24 25 27 27 27 28 29 30 32 29 30 31 34
19 19 19 20 19 19 19 20 20 21 22 24 25 25 22 20 24 26 27 28 29 29 30 30 30 31 33

GFSFLT2_sfc_30mbdewp_039.txt.gz
Dewpoint
18 19 20 20 20 20 22 22 21 21 20 21 22 24 25 26 26 27 28 29 29 30 32 33 33 33 33
20 21 21 21 20 23 23 21 19 17 19 21 22 23 24 25 26 27 27 28 29 29 29 30 31 32 32
20 20 21 22 25 25 20 18 16 18 19 20 22 23 24 24 25 25 25 26 26 26 27 28 28 29 31
21 23 24 26 24 19 16 17 19 19 21 23 21 22 23 22 23 24 24 25 25 26 26 26 27 28 29
24 25 25 20 18 16 17 20 20 24 21 21 21 21 22 22 22 22 23 24 25 26 27 28 29 30 30
26 23 22 18 17 19 21 22 23 21 20 20 21 21 22 21 21 22 24 25 26 27 28 29 30 30 30
22 19 18 18 21 22 24 23 20 21 21 22 22 20 21 20 22 23 25 26 27 28 28 30 31 32 31
18 18 19 21 27 29 23 22 22 22 21 21 20 20 21 22 22 24 25 26 26 27 28 29 30 32 34
18 20 23 22 19 20 22 22 20 19 20 20 21 22 21 21 22 22 23 24 26 28 29 29 30 32 35
22 20 17 17 19 20 22 23 21 19 19 21 22 22 19 19 22 23 24 25 26 27 28 29 32 34 34
17 16 17 19 20 22 22 24 22 20 20 22 22 21 21 20 20 22 23 25 26 27 30 30 31 33 33
17 18 19 21 22 22 22 23 24 24 24 24 22 21 20 19 19 20 22 25 27 28 29 31 32 33 34
19 20 21 22 22 22 23 24 23 23 23 23 24 24 24 22 21 22 23 25 27 29 32 31 31 31 31
20 20 21 21 20 21 22 22 21 21 22 23 24 25 25 25 25 24 24 24 27 31 31 32 30 31 32
21 21 20 20 20 20 21 22 21 19 20 22 24 25 26 27 25 25 25 27 28 28 30 29 29 30 32
20 20 20 20 20 21 21 20 20 20 21 22 23 25 24 25 25 26 25 26 27 28 30 29 28 28 31
21 20 20 21 20 19 20 20 20 20 21 22 24 24 22 20 22 24 26 26 27 28 28 28 29 29 31

GFSFLT2_sfc_30mbdewp_042.txt.gz
Dewpoint
18 20 21 21 21 22 22 21 23 24 23 23 22 23 25 26 26 27 29 30 30 31 32 34 33 34 34
20 20 21 21 22 22 23 26 24 21 21 20 23 23 24 26 26 27 27 27 28 29 30 30 31 32 32
21 22 21 22 24 25 27 22 20 18 19 21 21 25 25 25 25 25 26 26 27 27 27 28 29 30 32
22 23 24 26 26 23 20 18 18 20 20 23 26 23 23 23 24 25 25 25 26 26 27 28 29 30 31
23 23 23 23 22 22 18 19 19 21 23 22 21 21 21 22 23 23 24 25 26 27 28 29 29 30 32
24 24 23 22 19 19 19 19 20 24 21 20 21 20 22 23 22 24 24 26 26 27 29 29 30 32 32
23 21 18 19 20 20 22 25 24 22 21 21 21 21 22 21 22 24 25 26 27 28 29 30 30 30 31
20 19 20 21 23 29 27 23 22 22 21 20 20 20 20 22 23 23 25 26 26 26 28 28 30 31 32
20 21 22 22 21 20 22 21 19 19 20 20 20 21 21 20 21 23 23 23 25 26 27 28 29 30 32
21 21 19 18 19 20 20 21 21 18 19 20 21 21 18 18 19 20 22 22 23 25 26 28 29 31 32
18 17 18 19 19 21 22 24 21 19 19 22 21 21 20 19 18 20 21 22 23 24 26 28 30 30 31
17 18 19 20 21 22 22 22 23 23 23 25 22 21 20 18 18 19 21 23 24 25 27 28 29 30 31
19 20 20 21 22 22 21 22 22 23 23 23 22 22 22 20 20 21 22 23 25 26 27 28 29 30 29
19 20 21 21 20 20 21 20 20 19 21 22 22 23 22 23 23 22 23 23 25 26 27 29 30 29 30
20 20 20 19 19 19 20 20 20 19 19 21 22 23 24 24 23 23 24 25 26 26 26 27 27 29 29
20 20 19 19 19 20 20 19 18 19 20 21 21 22 22 22 25 26 27 26 26 26 26 26 27 27 28
20 19 19 20 19 18 18 19 19 19 19 21 23 23 20 18 21 24 25 26 26 26 26 27 27 28 29

GFSFLT2_sfc_30mbdewp_045.txt.gz
Dewpoint
19 21 22 21 22 22 23 22 23 25 25 24 24 24 25 26 26 27 29 30 31 32 33 34 34 34 34
21 22 22 22 22 22 23 24 25 26 23 22 22 23 24 26 27 28 26 28 29 30 30 29 31 33 33
21 23 23 24 25 26 26 26 23 22 20 20 22 24 26 26 25 26 26 26 27 27 27 28 29 30 31
22 23 24 23 24 24 22 22 20 19 20 21 23 25 23 23 24 25 25 26 26 27 28 30 31 32 32
23 23 22 22 23 22 21 20 20 20 20 22 24 22 22 22 22 23 25 26 26 27 29 30 31 33 33
25 22 22 21 20 19 20 19 19 23 23 23 22 21 21 22 23 24 24 25 27 28 29 30 31 32 33
23 23 23 20 20 21 23 24 24 23 22 21 21 20 21 21 22 23 25 26 26 26 28 29 29 30 31
24 22 21 22 24 26 24 22 22 21 20 19 20 20 20 21 22 23 24 25 25 25 26 27 28 29 30
21 22 23 22 21 21 20 20 18 18 19 19 19 20 20 20 20 22 22 22 23 24 26 27 27 28 30
21 19 18 18 20 20 20 20 19 18 17 20 20 20 17 18 18 19 20 21 22 23 24 26 27 28 30
15 16 17 18 19 21 21 22 21 19 20 22 21 20 20 19 19 20 20 20 21 23 24 25 27 29 29
16 17 19 20 21 21 22 22 23 22 22 23 21 21 20 18 17 18 19 21 23 23 25 26 27 28 29
18 19 19 20 21 22 21 21 21 22 22 22 22 21 21 19 18 19 20 21 23 24 25 26 26 27 27
18 19 20 20 20 20 20 19 19 18 20 21 22 22 21 21 21 21 21 21 23 24 25 26 27 28 28
19 19 19 19 19 19 19 19 18 18 17 19 21 22 22 22 21 21 21 22 24 25 26 26 26 27 27
19 19 18 18 18 19 20 19 17 17 18 19 19 20 20 21 24 23 24 24 25 26 26 25 25 26 27
18 18 18 18 19 18 18 18 18 18 18 19 21 21 18 17 20 23 26 27 26 26 25 25 26 26 27

GFSFLT2_sfc_30mbdewp_048.txt.gz
Dewpoint
19 21 21 22 22 23 23 23 23 25 25 26 26 25 26 25 26 27 27 30 32 31 31 33 34 34 34
20 21 22 23 23 23 24 25 25 26 26 25 24 24 25 26 26 28 29 28 28 29 29 29 29 32 32
21 22 23 23 24 25 25 26 26 24 22 22 23 24 26 26 27 26 26 26 27 27 27 28 29 30 31
22 22 23 24 24 23 22 21 20 20 21 22 24 25 25 25 25 25 25 26 26 27 28 29 30 32 31
22 23 23 22 21 21 20 20 20 21 21 22 23 24 24 23 23 23 24 26 27 27 28 28 30 32 33
22 24 23 22 22 21 20 20 20 22 23 22 22 21 22 22 22 24 25 25 26 26 28 29 30 31 32
24 24 23 23 22 21 22 24 23 23 22 20 20 19 20 21 22 23 24 25 26 26 26 27 29 31 32
25 25 25 23 25 25 22 21 21 20 20 18 19 19 20 20 21 23 24 25 26 26 26 25 26 27 28
23 23 24 22 20 21 20 20 18 18 19 18 19 19 19 19 20 22 22 23 23 24 25 26 26 26 28
18 16 17 17 20 20 20 19 18 17 17 18 19 20 17 18 18 20 19 21 22 23 24 25 25 25 27
15 16 17 18 20 21 21 21 20 18 19 21 21 19 19 18 19 19 20 20 20 21 22 24 25 26 27
17 18 19 20 20 21 21 22 22 22 22 22 19 19 18 17 16 17 19 20 21 21 23 24 26 27 27
18 19 19 20 21 21 21 21 21 21 22 22 22 21 20 18 17 18 19 20 21 22 23 24 25 25 26
18 19 20 20 20 20 20 19 19 18 19 20 21 21 19 19 20 19 20 20 21 22 23 24 25 26 26
19 18 18 19 18 19 19 18 18 17 17 18 19 20 21 21 19 20 20 21 22 22 24 24 25 26 26
18 18 18 17 18 18 19 19 17 17 17 18 19 19 18 19 22 21 21 22 23 24 25 24 25 26 26
18 17 18 18 19 18 18 18 17 17 18 18 19 20 18 16 18 21 24 26 26 25 25 24 24 25 26

GFSFLT2_sfc_30mbdewp_051.txt.gz
Dewpoint
19 19 20 21 22 23 24 24 24 25 26 26 27 27 27 27 27 27 28 30 31 33 33 34 32 34 34
19 20 21 22 23 23 23 24 24 25 26 26 25 25 26 27 27 28 29 31 31 28 28 30 31 31 33
20 22 22 23 23 24 25 24 25 23 22 23 24 25 26 27 27 26 27 27 27 27 27 27 28 28 30
21 22 22 23 24 23 22 22 21 21 21 23 24 25 25 25 26 26 26 26 27 27 27 27 27 30 31
22 22 22 24 23 22 22 22 21 22 22 22 23 23 24 24 23 23 24 26 27 27 28 29 29 30 30
21 23 24 23 23 23 22 21 20 22 22 21 22 21 21 21 22 24 25 26 26 26 26 28 29 30 30
24 23 23 24 24 23 23 23 22 21 21 20 20 19 20 19 21 23 24 25 26 26 26 27 28 29 30
24 25 25 25 26 26 23 21 21 21 20 18 18 18 19 20 21 23 24 25 26 26 26 26 26 26 27
22 24 24 22 21 21 20 20 18 18 19 18 18 18 19 19 20 22 23 23 23 23 24 25 26 26 27
18 16 17 17 20 20 20 19 19 17 18 18 19 20 17 18 18 19 19 21 22 23 24 24 25 25 26
15 16 18 19 20 20 21 21 19 18 19 22 20 19 19 17 19 19 19 19 20 21 22 23 24 25 26
17 18 19 19 20 20 21 21 22 21 21 22 19 18 17 16 15 17 18 19 20 21 21 23 24 26 27
18 19 19 20 20 20 21 21 21 21 22 21 21 20 19 17 16 17 18 19 20 21 21 22 23 23 24
18 19 19 19 19 19 19 18 18 17 19 20 20 20 18 19 19 17 18 19 20 21 22 23 23 24 25
18 18 18 18 18 18 18 18 17 17 17 18 19 20 20 19 18 18 19 19 20 21 22 22 23 24 25
17 17 17 17 17 18 19 18 17 17 17 18 18 19 18 19 21 20 20 20 21 22 24 24 24 25 26
17 17 17 17 19 17 17 18 18 18 18 19 20 20 18 16 18 20 23 24 25 25 25 25 24 24 25

GFSFLT2_sfc_30mbdewp_054.txt.gz
Dewpoint
20 20 19 20 21 22 24 24 24 25 25 26 27 27 27 27 28 28 28 29 30 31 32 33 36 34 34
19 19 20 21 22 22 23 24 24 25 25 26 26 26 27 27 27 28 29 30 29 30 30 31 32 31 32
19 21 22 23 23 23 24 25 25 24 23 24 25 26 27 27 27 27 27 27 28 28 27 28 28 28 29
21 21 22 23 24 24 23 22 22 22 23 24 25 25 25 25 26 26 27 27 27 27 27 27 28 28 28
22 22 22 23 23 23 22 23 23 23 22 22 23 23 23 24 23 23 24 26 27 27 27 27 29 30 31
22 22 24 24 23 23 23 22 21 22 22 21 21 21 21 21 22 24 25 26 27 27 26 28 29 30 31
25 24 23 23 23 23 24 24 22 22 21 20 20 19 20 20 21 23 24 26 27 27 26 26 27 28 29
24 24 24 25 25 25 24 22 21 21 21 18 18 18 19 19 21 23 24 25 26 26 26 26 26 28 27
23 25 24 23 21 22 20 20 18 18 19 19 18 18 18 19 19 22 22 23 23 23 24 25 26 26 26
19 17 17 17 21 20 20 19 18 17 18 17 18 19 16 18 18 20 19 20 21 23 24 24 25 25 25
16 17 18 19 20 20 21 20 19 18 18 21 20 19 19 17 18 19 19 18 19 20 21 22 24 25 25
17 18 19 19 20 20 20 21 21 21 21 21 19 18 17 16 15 16 18 19 20 20 21 22 23 25 26
18 19 19 19 20 20 20 20 20 20 21 21 20 20 19 16 16 17 18 18 19 20 20 21 21 22 22
18 18 19 19 19 19 18 18 17 17 18 19 19 19 18 18 18 17 18 18 19 20 21 21 22 23 24
18 18 18 18 18 18 18 17 16 16 17 18 19 20 20 20 18 18 18 19 20 20 21 21 22 23 24
17 16 16 17 17 18 19 18 17 17 17 18 19 19 19 20 22 19 19 20 21 22 23 23 23 25 26
16 16 16 17 19 18 17 18 18 18 19 20 22 22 19 17 19 22 24 24 25 25 25 24 24 24 25

GFSFLT2_sfc_30mbdewp_057.txt.gz
Dewpoint
27 23 21 21 22 23 23 24 24 26 26 26 27 28 28 28 29 29 29 30 31 32 33 34 36 36 37
21 21 20 21 22 23 23 23 23 23 25 27 27 27 28 28 29 29 29 29 30 30 31 31 32 33 33
22 21 22 23 23 24 24 24 24 24 24 25 26 27 28 28 28 28 28 28 28 29 29 29 28 29 30
22 22 22 24 24 23 22 21 21 22 23 25 25 25 25 26 26 27 27 27 28 28 28 28 28 28 29
23 24 23 23 22 22 21 22 23 23 22 21 21 21 22 23 23 24 25 26 28 28 28 29 30 31 32
25 23 23 23 22 21 23 23 21 21 21 21 21 20 20 21 22 24 25 26 27 27 27 28 29 30 30
25 23 22 21 24 24 24 23 22 22 21 20 20 19 20 19 21 23 24 26 27 27 27 27 28 28 29
23 23 23 25 26 26 23 22 21 21 20 19 19 18 19 19 21 23 24 25 25 26 26 26 26 26 27
23 25 25 23 22 22 22 21 19 18 19 18 19 19 19 19 19 21 22 23 23 24 25 25 26 26 26
21 18 18 18 22 21 21 21 20 18 19 19 19 19 18 17 20 19 19 20 21 23 24 24 25 26 26
17 18 19 19 20 21 21 22 20 19 20 22 20 19 19 18 18 19 19 20 20 21 22 23 24 25 26
18 19 20 20 21 21 21 22 22 22 22 22 19 19 18 17 17 18 20 22 23 23 24 23 24 25 25
19 20 20 21 21 21 22 22 22 22 22 22 22 21 20 18 18 18 20 20 22 23 23 23 23 23 23
19 19 20 20 21 21 21 20 20 20 22 22 22 21 19 20 20 19 20 20 22 23 23 24 23 23 24
19 18 19 19 20 20 20 20 19 19 20 21 22 22 22 22 20 20 21 21 23 23 23 23 23 24 24
18 18 18 19 19 20 22 21 19 19 20 22 22 22 21 22 24 22 23 23 24 25 25 24 24 25 27
18 18 18 18 20 21 21 21 20 21 22 23 24 23 20 18 21 24 27 26 26 25 25 25 25 26 27

GFSFLT2_sfc_30mbdewp_060.txt.gz
Dewpoint
32 33 32 31 27 23 24 23 22 23 25 27 27 28 29 29 30 30 30 30 31 31 33 34 35 35 35
29 29 28 29 28 26 25 23 22 22 24 26 28 29 29 29 29 30 30 30 30 30 31 31 30 31 31
27 27 28 29 27 24 23 22 22 22 22 23 25 26 28 29 29 29 29 29 29 29 29 30 30 30 30
27 26 24 23 24 22 21 21 19 20 23 24 25 25 26 27 27 27 28 28 28 29 29 29 29 29 29
24 23 23 21 20 21 20 19 21 23 22 21 20 21 22 22 22 23 24 25 27 28 29 28 29 30 31
25 21 20 20 20 19 20 21 21 22 21 21 21 20 21 21 21 23 25 27 27 28 28 28 28 28 30
22 21 20 20 24 24 23 23 23 22 21 20 21 20 20 19 21 22 24 26 27 28 28 28 27 27 27
22 21 21 22 23 26 25 22 22 21 21 20 20 20 20 20 22 23 24 25 26 26 27 26 26 27 27
22 24 25 25 24 22 22 22 21 20 21 20 21 21 22 22 22 22 22 23 24 25 26 26 27 27 27
22 20 19 18 21 23 22 22 22 21 21 21 21 21 20 19 21 22 22 22 23 24 24 25 25 25 26
18 17 19 20 21 21 22 23 22 22 23 25 22 22 22 20 21 22 23 23 23 25 25 25 26 26 26
18 20 21 23 25 25 25 25 24 24 25 25 22 22 21 20 19 21 23 25 26 26 27 27 26 26 26
21 22 23 24 25 25 26 26 26 26 26 25 24 23 22 20 20 21 22 23 25 26 27 27 27 27 25
20 21 22 23 23 24 24 24 23 24 27 27 26 24 21 21 22 21 22 22 24 25 26 26 26 25 24
21 21 21 22 23 24 23 23 22 22 23 25 26 27 27 25 22 22 22 23 25 26 26 26 26 26 27
21 21 21 22 22 23 25 25 23 22 22 24 24 24 24 25 26 25 25 25 27 28 28 27 26 27 28
21 21 21 21 22 23 23 24 23 23 23 25 26 25 22 20 22 24 26 28 27 26 26 27 27 27 29

GFSFLT2_sfc_30mbdewp_063.txt.gz
Dewpoint
33 33 33 33 33 30 29 27 25 25 26 26 28 28 29 30 31 31 31 31 32 32 32 32 32 34 36
31 31 31 32 31 28 27 26 24 23 25 26 28 29 29 30 30 31 30 31 31 31 31 31 31 31 32
30 29 28 29 29 29 26 24 23 23 22 21 23 26 28 29 30 30 30 30 30 30 30 30 31 31 31
27 28 29 28 26 24 23 23 22 20 22 24 25 26 26 26 26 27 28 28 28 29 29 29 29 30 29
27 26 25 24 22 22 21 21 22 24 24 24 23 23 24 24 23 23 24 25 27 28 28 29 28 29 29
27 24 22 21 21 21 24 22 22 24 23 23 24 22 23 23 23 23 25 25 26 27 28 28 29 28 28
24 22 21 22 25 24 24 23 22 23 24 22 23 23 23 22 23 24 25 26 27 27 28 28 28 28 28
24 23 23 22 22 24 26 25 24 23 24 22 23 22 23 23 24 24 25 26 27 27 27 28 28 28 27
22 23 24 25 26 26 24 23 23 22 24 23 23 23 24 23 24 24 24 24 25 26 27 27 27 27 27
23 22 22 20 20 22 23 23 22 22 23 22 23 24 23 22 24 24 23 24 25 25 26 26 26 26 26
20 18 19 20 22 22 23 24 23 22 24 26 25 24 23 22 23 24 24 24 25 26 26 26 27 27 27
19 20 23 24 25 25 26 26 26 25 26 26 24 22 21 20 19 21 22 23 25 26 27 27 27 26 27
22 23 23 24 25 25 25 26 27 27 26 26 26 24 23 21 20 20 21 21 23 25 27 27 27 28 27
21 22 23 23 23 24 24 24 23 23 25 26 28 27 24 23 23 21 21 21 23 24 25 27 27 28 27
21 21 21 21 22 23 23 24 24 24 22 24 26 27 28 26 23 23 24 25 26 26 26 26 28 29 29
21 21 21 21 21 22 23 24 24 23 23 24 24 25 26 26 28 26 26 26 26 27 28 27 26 26 28
22 21 21 21 21 21 21 24 24 23 23 24 25 26 23 21 23 25 23 23 24 24 26 26 27 27 28

GFSFLT2_sfc_30mbdewp_066.txt.gz
Dewpoint
33 34 33 34 35 35 33 31 30 28 28 28 28 29 30 31 31 32 33 33 33 33 33 32 32 34 35
32 31 32 33 33 31 29 27 27 26 26 27 28 28 27 29 30 31 31 31 31 31 31 31 31 31 32
31 32 31 30 29 29 29 28 27 24 24 22 23 26 28 29 30 30 31 31 31 31 31 31 31 31 32
27 27 28 29 29 25 24 24 23 22 24 24 26 27 26 26 26 27 27 27 28 28 29 29 29 30 30
28 27 26 25 24 24 22 23 23 23 24 24 24 24 25 27 25 24 25 26 27 28 29 29 29 29 29
27 25 23 22 22 24 23 21 20 24 23 23 25 24 24 24 26 25 26 26 27 28 29 29 29 28 28
25 24 22 23 23 22 22 23 23 24 24 23 23 23 24 24 25 26 27 27 28 29 29 29 29 28 28
24 24 23 24 25 25 24 25 25 24 24 22 23 23 24 25 26 26 27 28 27 27 28 28 28 28 28
21 22 24 25 26 26 24 22 22 22 24 23 23 23 23 23 24 26 25 25 26 27 27 27 27 27 28
23 22 22 23 21 22 22 20 22 22 23 23 23 24 21 23 23 23 24 25 25 25 26 27 27 26 28
21 19 20 21 22 23 23 21 21 22 24 26 25 23 23 22 23 22 22 23 23 24 25 26 27 28 29
19 20 22 23 24 25 26 26 26 26 26 26 23 22 21 21 20 20 21 22 23 23 24 25 27 27 27
21 22 23 23 23 24 25 27 27 27 27 26 26 26 25 22 21 21 21 21 23 24 24 24 24 26 26
20 22 22 22 22 23 23 24 24 24 24 26 26 27 25 25 24 23 23 22 23 24 25 25 25 27 27
21 21 21 21 21 23 23 24 23 22 24 25 26 27 27 26 24 25 24 25 25 25 27 27 27 28 29
21 21 21 21 21 22 23 23 21 22 24 24 25 25 26 26 28 26 26 26 26 25 25 24 24 26 26
21 22 22 22 20 21 21 21 20 21 24 24 25 25 22 20 21 25 24 24 24 25 25 25 25 26 27

GFSFLT2_sfc_30mbdewp_069.txt.gz
Dewpoint
34 33 34 35 35 37 36 35 34 33 33 31 30 30 30 31 32 32 33 33 33 33 33 33 33 34 35
32 32 32 34 34 34 33 30 29 28 28 28 28 29 28 28 30 31 32 32 32 31 32 33 33 32 32
31 32 32 32 32 31 29 29 29 29 28 25 24 26 28 30 30 30 30 30 30 31 31 31 31 32 32
28 28 28 29 28 25 25 25 24 23 24 25 25 28 28 28 27 27 27 27 28 28 29 29 30 30 31
27 27 27 26 25 25 24 23 23 23 24 24 24 24 25 28 26 26 27 28 28 29 29 29 30 29 29
27 26 24 22 23 24 22 21 19 24 23 23 25 24 25 25 27 27 27 28 29 29 29 29 29 29 29
26 24 22 23 22 22 22 22 22 23 25 23 24 23 24 24 26 27 28 29 30 30 30 29 28 28 29
24 24 23 24 24 24 24 24 24 24 24 22 23 22 23 24 26 27 28 28 27 27 28 29 28 29 29
22 22 24 25 25 25 24 22 20 22 23 23 23 23 23 24 24 27 26 25 26 27 27 27 28 28 30
23 22 21 20 22 23 22 19 20 20 23 23 23 23 20 22 22 23 24 24 24 24 25 26 27 27 27
20 19 21 24 24 24 23 20 20 21 23 26 24 22 23 22 23 22 22 22 22 23 24 25 26 27 28
19 21 22 22 23 25 25 26 27 25 26 26 24 23 22 21 20 21 22 23 23 22 22 24 26 26 27
20 21 23 22 23 23 24 25 26 27 28 28 27 25 25 22 22 22 23 22 24 24 23 23 24 24 24
20 21 22 22 22 24 23 24 24 24 25 25 26 26 24 25 25 24 24 23 24 25 25 25 26 27 26
21 21 21 21 22 23 23 23 22 21 21 22 26 28 27 26 24 24 24 24 25 25 26 25 26 27 27
22 22 21 21 22 22 23 22 21 21 21 22 24 25 24 25 27 25 25 25 25 26 26 25 24 25 26
22 22 22 22 21 21 22 22 21 21 21 22 22 23 21 19 20 22 23 23 24 25 25 25 25 25 26

GFSFLT2_sfc_30mbdewp_072.txt.gz
Dewpoint
34 34 35 36 38 37 38 38 38 38 38 39 37 34 32 32 32 32 33 33 33 33 33 33 33 33 34
33 32 33 35 36 36 36 35 33 33 35 31 30 30 30 30 29 31 32 32 31 32 32 32 33 33 33
32 32 32 33 33 33 32 32 29 29 30 30 28 27 27 28 30 31 31 31 31 31 32 32 32 32 32
31 30 29 30 28 27 26 26 25 23 24 26 26 27 29 30 29 29 28 28 29 30 30 30 31 31 31
28 28 27 26 25 26 25 23 23 23 23 24 23 24 24 27 28 27 28 30 30 30 30 31 30 31 30
27 25 24 23 23 23 22 20 19 23 23 23 25 24 25 24 27 29 29 29 30 31 31 31 30 30 30
26 24 22 23 22 22 21 21 20 23 25 22 23 23 24 24 26 27 29 30 30 30 30 30 30 30 30
24 24 23 24 23 23 23 23 24 24 24 21 23 22 23 24 27 28 28 28 28 28 29 29 29 29 29
25 24 25 25 26 25 24 23 20 22 23 23 22 23 23 23 24 27 26 25 26 27 27 27 28 28 28
22 20 21 21 24 25 23 19 19 19 23 23 22 22 19 21 22 22 23 24 25 25 25 27 27 27 27
19 20 22 24 25 25 23 20 19 21 23 26 23 23 23 22 23 23 22 22 22 23 25 26 26 27 28
20 22 22 22 23 23 25 26 27 26 26 26 24 23 22 21 20 21 21 23 23 23 22 24 26 26 27
19 20 22 21 22 22 23 25 25 25 27 28 27 26 25 22 21 22 23 23 24 24 23 23 23 24 24
20 21 21 22 21 24 23 23 23 23 25 26 24 24 23 23 23 23 24 23 24 25 25 25 26 26 26
21 21 22 22 22 23 23 23 22 21 21 21 22 23 25 26 23 24 24 23 25 25 25 25 26 26 27
23 22 22 22 22 22 23 22 21 20 20 21 22 21 21 22 26 24 25 24 25 25 25 24 24 25 26
22 22 22 22 21 21 21 20 20 20 19 21 21 20 18 17 19 21 21 21 22 23 24 25 24 25 26

GFSFLT2_sfc_30mbdewp_075.txt.gz
Dewpoint
35 35 36 37 38 38 40 40 39 41 41 41 42 41 40 37 35 34 34 34 34 34 34 34 34 34 34
33 33 33 35 36 36 37 37 36 36 38 40 40 38 36 33 32 31 31 32 33 32 32 33 33 33 33
32 33 32 32 33 34 34 34 36 34 33 34 32 31 29 29 29 30 32 32 32 32 32 33 33 33 33
31 31 31 32 30 29 30 28 26 24 25 26 28 28 28 29 31 31 31 30 29 30 31 31 32 32 32
28 28 27 26 25 26 24 23 22 23 23 23 23 23 24 27 28 29 28 29 30 31 31 31 31 30 31
26 24 23 22 23 23 22 20 19 23 23 23 24 23 24 25 27 29 30 30 30 31 31 30 30 30 30
24 24 22 23 21 21 21 20 20 22 25 22 23 23 24 24 27 28 29 30 31 31 30 30 31 31 30
24 23 23 23 23 22 22 23 24 24 24 21 23 22 24 24 27 29 29 29 28 28 29 29 29 29 29
27 26 26 27 26 25 23 23 20 21 23 22 22 22 22 22 23 27 26 26 26 28 28 28 28 28 27
22 20 22 24 26 26 23 20 18 19 22 22 22 22 19 20 22 22 22 24 25 25 26 27 28 27 26
19 20 22 24 24 24 22 19 19 20 23 26 23 23 22 21 22 22 22 22 22 23 25 26 27 28 27
20 21 22 22 23 23 23 26 26 25 26 26 24 24 22 21 20 21 21 23 23 23 22 24 26 27 28
19 20 21 21 21 22 22 23 24 26 26 27 27 26 25 22 21 21 22 23 24 24 23 23 23 24 24
20 21 21 21 22 23 23 22 23 22 23 25 27 26 22 22 22 21 22 22 23 24 24 25 25 26 26
21 21 21 23 22 23 23 23 21 20 20 21 22 23 23 23 21 22 22 23 24 24 25 24 25 25 26
23 22 22 22 22 22 23 22 20 19 19 19 19 21 20 20 23 22 22 23 24 25 25 24 23 24 25
22 22 22 22 22 21 20 20 19 18 18 18 18 18 17 15 18 21 23 22 21 22 22 23 23 24 25

GFSFLT2_sfc_30mbdewp_078.txt.gz
Dewpoint
34 35 36 37 38 39 39 39 39 41 42 42 42 42 42 41 40 39 39 39 37 36 35 35 36 35 35
33 33 33 35 37 37 37 37 36 37 38 39 40 40 39 38 36 36 35 33 33 33 33 33 34 34 34
32 33 33 34 34 34 35 35 36 35 36 36 36 35 34 32 31 31 31 32 33 33 33 33 33 33 33
32 31 30 31 30 30 30 28 27 24 26 27 28 29 30 30 30 32 32 32 32 31 31 32 32 32 32
26 27 27 25 24 25 24 23 22 23 23 22 23 23 24 27 28 29 29 29 30 31 32 32 31 31 31
24 23 22 22 23 23 21 20 19 23 23 22 24 23 24 24 27 29 29 30 31 31 32 32 30 31 32
22 23 22 23 21 21 21 20 20 22 24 21 23 22 24 24 27 28 29 30 31 31 31 30 30 31 31
23 23 23 23 23 22 22 23 24 24 24 20 22 22 23 23 26 30 30 30 29 29 29 30 30 30 30
27 27 27 27 26 25 22 23 21 20 23 22 22 22 22 22 23 28 27 26 26 28 28 28 29 29 29
21 20 23 25 27 25 23 21 18 18 22 22 21 21 18 20 22 22 22 24 25 25 26 27 28 28 27
19 21 23 24 24 24 21 19 20 20 22 26 23 22 21 20 21 22 22 22 22 23 25 26 27 28 27
20 20 21 21 22 23 23 24 26 25 26 26 24 23 22 21 20 20 20 22 22 22 22 24 26 27 27
19 20 21 21 20 22 22 23 22 23 25 26 26 26 25 22 21 21 21 22 23 24 23 23 23 24 24
20 20 21 21 22 22 22 23 22 21 21 22 24 26 23 23 22 20 21 20 21 23 25 25 25 26 25
20 21 21 22 23 23 23 23 21 20 19 19 20 22 23 21 20 20 20 21 22 23 24 24 24 25 25
22 22 22 22 22 22 22 22 21 20 18 17 17 18 18 20 23 20 20 20 22 24 24 23 22 22 24
20 21 21 22 21 21 20 20 19 18 17 17 16 16 15 14 17 21 21 21 22 22 22 21 21 22 23

GFSFLT2_sfc_30mbdewp_081.txt.gz
Dewpoint
36 36 37 38 38 39 39 39 39 42 42 42 41 42 43 42 41 41 41 41 41 41 40 38 37 37 37
35 34 35 36 37 37 37 37 36 38 39 40 40 39 39 39 39 38 37 36 36 35 34 34 35 34 36
34 34 34 35 35 35 35 35 34 34 33 34 34 34 35 37 34 32 32 32 33 34 34 34 34 34 35
33 31 31 30 31 30 28 26 25 24 26 28 29 29 30 31 31 32 33 33 32 33 32 32 32 32 32
28 28 26 25 24 25 24 23 23 24 22 22 22 23 23 25 27 29 29 30 31 31 31 32 32 31 32
25 23 22 23 23 23 23 22 20 23 23 21 24 22 24 24 26 28 28 29 30 32 32 32 32 31 31
21 22 22 23 23 24 22 22 20 23 24 20 22 22 24 23 27 28 29 30 31 32 32 32 30 30 31
23 23 24 24 24 25 24 24 24 23 24 22 23 22 23 23 26 29 31 30 29 29 30 30 30 30 31
27 27 27 27 26 26 24 24 20 20 23 23 23 22 22 22 24 29 28 27 27 27 28 28 29 30 29
20 21 24 27 28 24 24 23 21 21 23 23 22 22 22 22 24 23 22 24 25 26 26 27 28 28 28
20 22 23 24 24 24 23 24 23 22 24 26 24 22 21 21 22 23 23 22 23 24 26 26 26 28 28
20 21 22 23 24 24 25 25 25 25 25 27 24 23 22 21 20 22 23 23 25 26 26 26 27 28 28
20 21 23 23 23 23 24 24 24 24 24 25 25 24 24 22 21 21 22 23 24 24 26 26 26 26 26
21 22 22 23 22 23 22 22 22 22 24 24 25 25 22 22 22 21 21 21 23 24 24 24 26 26 25
22 21 22 22 21 23 23 22 21 21 21 22 22 22 22 23 21 21 21 21 23 23 23 23 25 25 25
22 22 21 21 21 22 22 22 21 20 20 21 20 19 20 20 23 21 21 22 23 23 24 23 23 24 23
22 22 21 21 20 20 20 20 19 19 20 20 19 18 17 17 18 22 23 22 22 22 22 22 22 23 22

GFSFLT2_sfc_30mbdewp_084.txt.gz
Dewpoint
39 38 38 39 39 39 39 38 39 42 42 42 42 43 42 42 42 42 41 41 41 41 41 42 42 41 40
37 37 36 37 37 38 37 37 37 38 39 39 39 39 39 39 39 39 38 38 37 37 37 36 36 36 36
36 36 36 36 35 35 34 34 30 28 30 33 34 34 34 36 35 33 33 33 33 34 35 35 35 35 35
35 33 33 32 31 30 29 27 26 24 26 26 27 27 28 30 32 33 33 34 34 32 34 34 33 33 33
32 31 28 26 25 24 23 22 23 23 21 20 20 21 21 23 24 27 29 29 30 31 32 32 32 32 32
26 21 21 22 22 22 23 21 20 24 21 18 21 20 22 23 28 29 29 29 29 30 32 32 32 32 32
19 19 20 22 26 26 23 22 20 21 21 18 21 20 23 22 26 29 30 30 31 32 32 31 31 31 30
22 22 24 25 24 26 24 23 23 22 23 22 22 21 22 23 24 28 32 31 30 29 30 31 31 31 31
27 27 27 27 26 25 25 24 21 20 23 23 24 23 24 23 23 30 29 29 28 28 29 29 29 30 30
20 22 23 27 28 24 24 25 24 24 24 24 24 24 25 23 25 25 25 25 25 27 27 28 28 28 27
19 21 22 24 24 24 24 26 25 24 26 25 24 24 23 23 24 25 25 25 24 25 26 27 28 27 27
19 20 22 23 25 25 25 25 24 25 25 28 24 24 22 22 22 24 24 25 27 28 28 28 28 28 29
21 23 24 26 26 26 25 26 26 26 27 26 24 24 24 22 22 22 23 25 27 27 26 27 27 27 27
21 23 24 25 23 24 23 23 23 22 26 28 27 25 23 23 23 23 23 23 25 26 26 26 26 25 26
22 23 22 23 22 23 23 22 21 21 22 23 25 24 24 24 22 22 22 23 25 25 24 24 25 26 26
22 23 22 22 22 22 22 22 21 21 21 22 22 22 22 23 25 23 23 23 25 25 24 24 23 25 25
23 23 23 22 21 20 20 20 20 20 21 21 21 20 19 19 20 25 23 23 24 23 23 23 24 25 24

GFSFLT2_sfc_30mbdewp_087.txt.gz
Dewpoint
40 39 39 38 39 40 39 39 39 42 42 43 43 42 42 42 43 43 43 42 42 42 42 43 43 43 43
39 38 37 37 37 38 37 37 37 35 38 39 39 39 40 40 39 39 39 38 37 37 37 37 37 37 38
37 37 36 36 36 35 33 34 28 28 30 33 35 36 36 36 35 34 34 34 34 35 36 36 36 36 36
36 35 34 33 32 29 30 28 27 25 26 25 26 26 27 29 31 33 34 34 34 33 33 34 34 34 34
34 33 30 27 26 24 24 23 25 24 23 21 22 22 23 22 24 26 28 29 29 30 31 32 32 33 32
29 23 22 22 23 24 25 24 23 25 23 21 22 21 23 25 29 30 30 30 30 30 31 32 30 32 32
20 21 20 24 27 27 25 25 22 23 22 21 21 21 24 23 27 28 29 31 31 32 32 32 31 30 31
23 23 25 25 25 27 25 24 24 23 24 23 24 23 25 24 25 26 31 32 31 30 30 31 31 31 32
28 27 27 28 28 26 27 25 25 21 25 24 26 24 25 24 25 31 30 30 29 29 29 29 30 30 30
23 24 25 28 28 25 26 27 26 25 25 25 25 25 25 25 26 26 26 26 26 27 28 29 29 29 29
20 21 22 24 24 24 25 27 24 24 26 26 23 23 23 23 25 26 27 27 27 27 28 28 29 29 28
20 21 22 24 26 26 26 27 26 25 27 28 24 24 23 21 22 25 26 27 28 27 27 28 28 28 29
21 23 25 28 27 26 27 26 26 26 25 27 26 25 25 24 22 23 23 25 26 26 26 27 27 28 27
23 24 27 27 25 24 24 24 24 24 26 27 26 25 24 24 23 23 23 23 25 26 27 26 26 27 27
22 24 24 25 24 23 23 23 23 22 23 26 27 27 25 24 22 22 23 24 26 25 25 24 25 26 27
24 25 24 24 24 23 22 23 22 22 22 24 25 25 23 23 25 23 24 24 25 24 24 24 24 25 26
25 25 25 25 23 23 23 21 21 20 22 24 24 22 19 18 21 27 25 25 24 23 24 24 24 24 25

GFSFLT2_sfc_30mbdewp_090.txt.gz
Dewpoint
40 39 38 38 39 40 39 39 40 42 43 42 42 42 43 43 43 44 44 43 43 43 43 43 44 44 44
38 37 37 37 37 37 37 36 32 36 39 39 39 39 40 40 40 40 39 39 38 38 38 38 38 39 39
37 37 36 36 36 35 34 31 27 29 31 33 35 36 37 37 36 35 35 35 35 36 37 37 37 37 37
37 35 34 33 32 29 29 27 25 25 26 26 27 27 28 29 33 33 34 34 35 33 33 33 34 34 34
35 33 30 27 26 24 24 24 25 24 23 22 22 22 24 27 28 29 28 29 29 30 31 32 32 33 33
30 28 22 23 24 24 23 23 22 24 21 20 21 21 24 28 29 30 30 30 30 30 30 31 31 31 30
21 21 22 25 24 26 25 24 22 23 23 21 22 22 24 26 28 27 29 31 31 32 32 33 31 30 31
24 26 25 25 26 26 24 24 25 24 24 22 25 24 25 25 27 29 32 32 32 31 31 30 30 30 31
29 27 28 28 28 27 26 25 24 22 25 24 25 25 25 25 26 31 30 30 30 30 30 30 29 30 31
23 23 27 28 27 25 26 25 25 24 24 23 23 24 22 25 26 26 26 27 26 26 27 29 29 29 29
20 21 23 24 24 24 26 25 23 23 27 23 23 23 23 22 23 24 25 26 26 27 28 28 28 29 28
20 21 22 24 25 26 26 26 26 24 26 26 22 23 22 21 20 23 23 23 24 25 26 27 27 28 29
20 21 23 26 25 25 25 26 25 24 25 24 24 22 23 22 21 22 22 24 24 25 26 26 25 26 26
20 24 26 25 24 24 24 23 23 24 26 27 25 24 21 22 24 22 22 22 23 25 25 25 26 26 26
20 23 25 25 24 24 23 22 23 22 22 24 27 26 25 25 23 23 22 22 23 24 26 24 25 25 25
22 23 23 24 24 23 22 21 21 21 21 23 24 25 24 23 24 23 22 22 22 25 24 24 24 24 25
21 23 24 24 25 23 22 21 21 21 21 23 23 22 19 17 18 21 24 23 24 24 24 23 23 24 25

GFSFLT2_sfc_30mbdewp_093.txt.gz
Dewpoint
40 39 38 38 39 39 39 38 41 43 43 43 43 43 43 43 44 45 45 45 44 44 44 44 44 44 45
38 38 37 37 37 37 37 36 34 39 39 40 39 40 41 40 40 40 40 39 39 39 39 39 40 41 41
37 37 36 36 35 35 34 28 28 30 31 33 34 38 38 37 37 37 37 36 37 38 38 38 38 38 38
37 36 34 34 31 32 28 27 25 24 26 27 28 28 28 32 33 32 34 34 35 34 34 34 34 34 35
35 32 30 28 27 25 24 25 24 24 22 22 21 23 26 29 29 29 28 28 29 30 31 32 32 32 33
31 31 24 23 24 24 23 23 22 24 20 20 22 22 25 27 28 29 30 31 29 29 30 31 32 31 31
26 23 22 25 24 24 23 23 22 23 22 21 23 23 25 26 28 27 28 31 31 32 33 33 31 30 30
24 24 24 25 25 25 24 23 24 24 24 22 25 24 25 25 29 30 32 32 32 32 31 31 31 31 30
30 29 30 29 26 26 25 25 23 22 25 23 25 24 25 26 26 30 31 30 30 30 30 30 30 29 31
23 27 29 29 27 26 25 24 24 24 24 22 23 23 20 24 25 26 26 28 29 27 28 28 29 29 29
21 23 24 24 24 26 26 24 22 23 27 22 21 21 22 21 22 23 25 25 25 25 28 28 28 28 28
20 21 22 24 24 25 26 25 25 23 25 24 21 22 21 20 20 22 22 23 24 24 26 26 26 28 28
20 21 23 24 25 25 24 24 23 24 24 24 23 21 21 21 21 22 22 22 23 24 25 25 26 25 25
20 21 25 24 24 23 22 23 23 23 25 27 25 24 22 20 21 21 22 21 22 22 23 25 25 25 25
21 22 25 25 24 23 23 22 22 21 21 22 26 26 24 23 22 23 22 22 22 22 23 25 26 25 25
20 21 24 24 24 24 23 22 21 21 21 21 22 24 25 24 26 23 22 22 22 22 23 24 23 24 25
21 20 22 23 25 24 23 22 21 20 20 21 21 21 19 17 18 21 23 23 23 24 24 24 23 23 23

GFSFLT2_sfc_30mbdewp_096.txt.gz
Dewpoint
40 39 39 39 40 39 39 38 41 43 43 42 42 43 43 43 44 45 45 46 46 46 45 44 44 44 45
38 38 37 38 38 37 37 32 36 39 40 40 40 41 41 41 41 40 40 40 41 41 41 41 42 42 41
38 38 36 36 35 35 31 28 26 29 29 30 36 38 38 39 38 38 37 38 39 39 40 39 39 39 39
37 36 34 35 33 32 29 26 24 24 27 29 30 30 30 35 32 33 34 36 35 35 34 34 34 35 35
36 33 31 31 28 28 26 25 24 23 22 22 21 24 28 30 30 29 28 28 30 30 31 32 32 32 32
32 32 28 26 25 24 24 23 21 24 19 21 22 23 24 26 28 29 30 31 29 29 29 30 32 32 31
32 30 24 24 25 23 23 22 22 23 22 20 24 23 25 26 28 28 28 31 31 32 33 34 32 31 30
26 24 24 26 25 25 23 23 23 25 23 22 25 23 25 25 31 31 32 30 32 32 32 31 31 31 31
28 28 28 29 27 25 23 23 23 22 24 23 24 24 24 26 26 31 31 31 30 30 30 31 30 30 30
28 29 30 30 30 26 25 24 23 22 24 22 23 22 22 24 25 26 26 30 30 29 30 29 29 28 28
22 25 25 25 25 26 25 23 22 23 26 22 20 21 21 21 22 23 24 23 23 24 27 28 28 28 27
21 22 23 23 24 25 25 24 23 23 26 21 20 21 19 19 20 22 22 22 23 22 23 26 26 27 28
20 21 23 24 24 25 24 23 22 24 24 24 21 19 21 20 19 21 21 22 22 22 25 25 24 25 25
20 21 23 23 24 23 23 22 22 22 25 24 23 22 22 22 21 20 20 20 21 21 22 23 24 26 25
20 21 23 24 24 22 22 22 21 20 20 22 26 25 24 22 21 21 21 22 23 22 22 21 23 25 25
23 21 22 24 24 23 22 22 21 21 21 21 21 23 24 25 26 23 22 22 22 22 22 21 23 24 24
24 22 21 23 25 23 23 23 22 21 21 20 20 20 18 17 19 24 23 22 22 22 23 23 23 22 23

GFSFLT2_sfc_30mbdewp_099.txt.gz
Dewpoint
40 40 40 40 40 39 38 39 42 44 43 42 43 43 43 44 45 45 47 47 47 47 47 46 46 46 45
38 38 38 39 39 38 35 34 36 40 39 41 41 41 41 40 40 40 41 42 42 43 43 44 43 43 43
38 38 37 36 35 35 29 27 26 29 31 34 39 39 40 40 39 39 40 40 41 41 40 40 40 41 41
38 37 35 35 34 32 27 25 24 24 28 31 32 32 35 33 33 33 35 36 37 36 35 35 35 35 36
37 35 33 33 32 30 27 24 23 22 22 22 22 25 28 29 30 30 28 30 31 31 32 32 32 32 32
35 35 32 31 27 27 25 24 22 24 19 21 22 23 23 25 28 29 30 31 29 29 29 30 32 32 31
34 33 30 27 26 25 24 23 22 23 21 19 24 23 25 26 30 29 28 31 31 32 33 34 32 31 31
32 30 26 26 26 25 24 23 24 24 23 20 25 23 25 25 31 32 32 30 32 32 33 32 32 32 32
28 28 29 28 27 24 22 21 21 22 24 23 24 24 24 25 26 31 31 31 31 30 31 31 31 31 30
30 30 30 30 28 24 24 20 22 21 24 22 23 22 22 24 25 25 25 31 31 29 30 29 29 29 28
26 27 27 26 26 26 25 24 22 23 25 21 20 21 20 22 22 23 24 23 23 24 27 29 29 28 27
21 23 24 23 25 25 25 24 23 23 27 21 20 20 18 19 19 22 22 22 23 22 22 26 27 27 27
21 22 23 24 25 25 24 23 23 26 25 22 21 19 20 19 19 21 21 22 22 21 23 24 23 24 24
21 22 23 24 24 24 23 22 22 22 24 23 21 20 20 21 20 20 20 19 20 21 22 22 23 23 24
21 21 22 24 24 23 22 21 21 20 21 22 26 24 22 21 21 21 21 20 21 22 22 21 21 22 24
24 21 21 22 23 22 22 22 21 20 20 20 21 22 23 24 25 22 21 22 22 23 22 20 22 23 24
25 24 23 22 24 23 23 22 21 21 21 20 20 20 18 16 19 26 23 21 22 22 22 22 22 23 23

GFSFLT2_sfc_30mbdewp_102.txt.gz
Dewpoint
40 41 41 41 40 39 38 41 44 44 44 44 43 43 44 44 45 47 48 50 51 51 51 50 49 48 47
39 39 39 40 39 38 32 34 37 39 41 42 42 42 42 41 41 43 43 44 45 46 46 46 47 46 45
38 38 37 37 36 34 30 27 27 31 34 38 40 41 40 39 40 40 41 42 42 43 43 43 43 43 43
39 37 36 36 35 33 28 26 24 25 28 32 34 36 35 34 33 35 37 38 38 38 37 37 37 38 38
38 36 34 34 34 32 27 25 23 22 23 22 23 25 28 30 30 30 31 33 34 34 33 33 32 32 35
36 36 34 33 31 30 27 24 24 24 20 21 22 23 24 26 29 29 30 30 29 29 30 31 33 32 33
36 35 34 32 29 27 25 24 22 23 20 19 23 23 25 27 31 30 29 31 32 32 33 33 32 32 32
33 34 31 29 28 28 26 24 24 24 23 17 24 23 25 26 32 32 29 32 32 34 33 33 33 33 32
29 29 29 29 27 25 23 22 20 21 24 23 24 24 24 25 27 31 30 31 32 32 32 31 31 32 32
30 30 30 30 29 25 25 20 21 20 24 22 23 22 21 24 25 25 27 32 31 29 30 29 31 29 28
27 27 27 27 26 26 26 23 21 22 25 22 21 21 20 22 22 23 24 24 24 24 27 29 29 29 27
24 25 25 24 25 25 25 24 24 23 27 22 20 20 19 19 19 22 22 22 22 22 22 26 28 28 28
20 22 24 24 25 25 25 24 25 27 24 21 21 18 19 18 18 20 21 21 23 21 21 23 24 24 23
21 23 24 24 24 24 23 22 21 22 24 23 21 21 20 20 19 19 20 19 20 22 22 22 23 24 23
22 21 22 23 24 23 22 21 21 20 21 23 25 22 21 21 21 21 21 20 20 21 22 21 22 22 22
23 22 22 22 22 22 22 22 22 21 20 20 22 23 23 23 24 22 21 20 21 23 23 20 21 23 23
26 25 22 21 23 22 22 22 22 22 21 20 20 20 18 16 18 26 22 21 22 22 22 21 21 21 23

GFSFLT2_sfc_30mbdewp_105.txt.gz
Dewpoint
42 42 42 42 41 40 41 43 45 44 44 44 44 43 44 45 46 48 51 53 56 55 54 52 51 49 47
40 40 40 41 40 37 36 34 39 41 43 43 43 43 42 43 44 46 47 49 50 51 51 51 50 48 46
40 39 39 39 37 33 31 28 30 35 38 40 42 40 39 40 41 42 43 44 45 46 47 47 46 46 45
40 38 37 37 36 33 30 27 27 27 31 35 37 36 35 34 35 38 39 40 41 41 40 41 42 42 42
38 37 35 34 35 34 30 27 25 25 24 23 26 26 28 30 31 31 34 36 36 36 36 35 36 37 38
38 37 36 35 33 32 28 26 27 25 23 22 23 24 25 29 29 30 31 30 32 32 32 32 33 35 37
37 37 36 34 33 31 29 28 26 24 21 22 23 23 26 28 32 29 30 31 31 31 32 32 33 33 32
35 35 35 33 34 33 30 26 25 24 23 22 24 23 25 27 32 32 29 32 33 34 34 34 33 33 32
30 31 31 32 30 29 28 27 24 23 24 24 25 24 25 26 29 31 32 33 33 33 33 33 33 33 32
30 30 31 31 29 27 28 26 24 22 25 25 24 25 24 25 27 28 30 31 31 31 31 32 33 31 30
28 28 28 27 26 26 27 26 24 25 26 26 25 24 24 25 25 26 27 27 28 28 30 30 32 30 30
25 27 26 26 27 27 27 27 27 26 28 26 24 24 23 23 23 24 25 25 26 27 27 27 29 29 30
21 24 26 27 27 27 27 27 29 29 27 25 25 23 24 22 21 22 24 25 26 26 25 26 27 27 27
23 24 26 26 26 26 25 25 24 25 27 25 25 24 23 23 23 22 23 23 24 25 25 25 25 25 25
24 24 23 24 25 26 25 24 24 23 23 25 25 24 24 24 22 22 22 23 24 24 23 23 24 24 24
25 24 24 24 24 25 25 24 24 24 23 23 25 25 24 24 25 23 23 23 24 24 24 23 22 23 22
27 26 25 24 24 24 24 24 23 24 24 23 23 22 19 17 20 26 23 23 23 23 23 23 22 23 23

GFSFLT2_sfc_30mbdewp_108.txt.gz
Dewpoint
45 44 44 44 43 41 43 44 46 45 45 44 44 43 44 45 48 49 52 55 57 58 57 57 55 52 50
43 42 42 43 41 38 37 36 40 44 43 44 43 42 43 43 45 47 49 50 52 55 54 52 51 50 49
42 41 40 40 38 34 32 31 34 36 40 42 41 40 40 40 42 44 45 47 48 49 51 51 50 49 48
42 40 39 38 37 34 32 30 30 29 35 38 38 36 35 35 37 39 40 42 43 44 44 45 47 47 46
40 38 37 35 36 35 33 30 27 27 27 28 32 29 28 29 31 33 36 38 38 38 39 40 41 41 42
39 37 37 37 36 34 31 29 29 27 27 26 23 24 25 28 30 31 31 33 34 34 34 34 37 38 41
37 38 37 36 35 33 31 30 30 27 26 26 24 24 27 31 32 29 30 31 31 32 32 33 34 36 37
35 36 36 35 35 35 33 29 26 24 25 25 25 23 25 27 33 32 30 32 33 34 33 33 34 33 33
32 32 33 34 35 33 31 30 30 28 25 24 24 24 25 26 31 33 31 32 34 34 35 35 35 33 32
30 31 32 32 31 32 34 34 30 26 25 26 25 26 26 26 30 31 32 32 33 33 33 33 34 32 32
27 28 29 28 27 27 29 34 31 30 27 29 29 26 29 26 27 30 31 31 31 32 31 31 33 31 31
25 26 26 27 28 29 29 29 30 30 29 30 29 29 28 26 25 27 28 29 30 31 31 30 31 32 31
23 25 28 30 30 29 29 30 31 31 30 28 30 29 29 29 26 25 27 27 28 29 29 29 29 29 29
24 24 28 29 28 29 28 28 28 28 29 28 29 28 27 27 26 25 26 26 28 28 28 28 27 26 27
27 25 25 26 27 28 28 28 28 27 26 27 26 27 27 27 25 25 24 25 27 27 26 26 27 26 25
28 28 26 26 27 27 28 27 27 27 26 27 26 25 25 25 26 25 24 25 27 26 26 24 25 26 24
30 30 29 29 27 27 26 26 26 26 27 27 26 24 22 19 23 27 26 25 25 24 24 24 23 25 24

GFSFLT2_sfc_30mbdewp_111.txt.gz
Dewpoint
47 45 46 45 43 42 43 44 46 46 45 45 44 43 43 44 46 48 50 53 56 56 56 58 59 59 56
46 44 43 44 42 39 37 36 42 45 45 44 43 42 42 42 44 46 48 50 55 57 58 58 56 54 53
44 42 41 41 37 35 34 34 35 37 40 43 41 39 39 40 41 43 45 47 49 51 53 53 53 52 51
40 41 40 40 38 36 33 32 32 30 37 40 38 36 35 35 37 39 42 44 46 47 49 49 51 51 51
39 40 38 37 37 36 35 32 30 29 29 29 34 30 28 29 32 34 37 39 40 42 44 44 45 46 46
39 38 38 37 37 36 33 31 32 29 28 28 25 27 27 30 30 31 33 35 36 36 37 39 41 42 42
38 38 38 37 37 35 33 32 32 28 28 30 25 25 28 32 35 30 31 31 33 33 34 36 40 40 39
32 37 36 36 36 35 34 31 26 25 26 27 26 25 26 30 33 32 31 32 33 33 33 34 36 35 36
33 32 35 36 36 33 31 30 29 27 26 26 25 25 26 27 32 33 32 32 35 35 34 34 34 34 33
31 32 34 34 34 34 35 33 32 28 28 27 25 26 25 28 31 32 34 34 34 34 34 35 35 33 34
27 29 30 30 29 29 31 36 32 31 28 31 29 27 31 26 28 31 32 32 32 33 32 33 34 32 32
26 27 27 28 29 30 30 31 32 32 29 31 29 29 29 27 26 29 30 31 32 32 32 32 32 33 32
24 26 30 32 31 30 30 30 30 31 30 28 30 30 30 30 27 26 27 29 30 31 32 31 30 31 31
25 27 31 30 29 30 29 30 30 29 29 28 29 29 27 28 28 27 28 27 30 30 30 30 29 29 30
27 27 27 28 28 30 29 29 28 28 27 28 27 28 28 28 26 27 27 27 28 29 28 28 29 28 27
29 29 27 27 28 28 28 28 27 28 28 28 27 25 26 26 27 26 26 27 28 28 27 26 27 29 28
30 30 30 30 28 28 28 28 27 28 29 29 27 25 22 18 27 28 27 27 28 27 27 26 25 27 27

GFSFLT2_sfc_30mbdewp_114.txt.gz
Dewpoint
47 45 45 44 43 42 43 44 46 46 45 45 44 43 43 43 44 47 49 51 56 56 56 58 57 57 58
46 44 43 43 42 40 38 38 43 45 46 45 43 41 41 41 42 45 47 50 53 57 56 56 56 57 58
43 43 42 41 38 36 35 35 36 38 40 42 41 39 38 39 40 42 45 48 50 51 54 57 57 56 55
39 42 41 40 39 37 35 33 34 31 36 40 38 34 32 33 36 38 42 45 47 49 50 52 53 53 53
38 40 39 38 37 38 36 34 32 32 32 30 33 31 29 32 32 35 38 40 43 46 47 48 49 49 49
37 37 37 38 38 37 35 33 35 31 29 29 25 27 29 32 31 31 34 36 37 41 44 45 46 45 45
37 36 38 38 37 36 34 33 33 30 29 30 26 25 27 33 35 32 31 33 34 35 39 44 43 43 42
32 35 37 36 37 36 35 33 28 27 28 28 26 25 26 29 32 32 31 32 33 33 35 39 39 39 39
34 33 34 37 37 35 33 31 31 28 26 27 26 25 26 27 31 34 32 33 35 34 35 36 35 36 36
30 31 34 35 37 35 33 32 33 30 28 25 25 25 21 27 30 31 33 34 35 35 36 35 35 34 34
28 29 31 29 28 29 32 34 34 31 28 28 26 26 29 26 27 30 32 31 32 33 34 34 35 34 33
26 27 27 27 28 29 30 31 33 31 30 29 27 25 26 25 23 29 29 31 31 31 31 32 34 34 33
24 25 28 30 30 29 29 29 29 30 29 29 29 30 29 26 26 26 27 28 30 31 31 31 30 31 32
24 26 29 28 28 28 27 29 28 26 28 28 28 28 26 28 27 25 27 24 29 29 31 31 30 30 30
26 26 28 28 28 28 28 28 26 27 25 27 28 28 28 28 24 26 26 27 28 28 29 28 29 29 28
27 27 26 26 27 28 27 27 25 26 27 27 26 24 25 24 27 24 25 27 27 28 28 26 26 27 29
28 27 27 26 27 27 26 26 26 27 28 28 26 23 18 14 25 28 24 26 27 27 27 26 24 25 28

GFSFLT2_sfc_30mbdewp_117.txt.gz
Dewpoint
46 45 45 44 43 42 42 43 46 47 46 45 44 43 42 42 42 44 47 49 51 55 57 57 57 57 58
45 44 44 43 42 41 39 38 43 44 46 45 43 41 40 40 41 42 45 47 50 53 56 56 58 56 56
42 43 42 41 39 37 36 36 36 38 40 43 41 38 36 36 38 39 43 45 49 51 55 56 56 56 57
40 41 41 40 39 39 37 34 35 33 35 39 40 34 33 34 34 37 39 42 47 50 50 52 55 55 55
39 40 39 38 37 38 37 36 34 34 33 32 32 32 31 31 32 33 36 40 43 47 49 50 50 53 55
37 37 36 37 38 37 36 35 36 32 31 31 27 28 28 31 35 32 33 36 39 44 47 47 48 49 52
37 36 36 37 38 36 35 34 34 32 30 30 26 26 27 31 33 34 31 33 35 38 45 45 45 46 49
34 36 38 37 37 36 36 34 30 28 29 28 27 25 26 28 32 33 31 32 34 34 40 41 42 43 46
34 34 34 34 37 36 34 32 32 31 27 27 27 25 25 26 29 34 32 34 34 33 37 37 39 39 41
28 30 34 35 38 35 33 33 32 30 29 26 25 24 18 26 29 31 32 34 35 36 36 35 36 34 34
28 29 31 29 28 29 33 34 33 32 28 26 25 26 27 26 27 30 31 31 32 32 35 36 35 34 34
26 26 27 27 28 28 29 30 32 33 30 27 25 24 25 25 22 28 29 30 31 31 31 33 35 34 35
25 25 27 28 28 28 27 28 28 29 29 29 27 29 27 24 26 27 27 29 30 30 31 30 31 32 32
24 25 28 27 27 26 24 26 25 25 27 27 28 27 27 28 27 25 26 24 28 29 31 31 31 30 30
26 27 28 27 26 27 27 26 25 25 24 26 28 28 28 27 24 25 26 27 28 28 29 28 29 30 29
26 26 26 26 26 27 26 26 24 24 27 26 25 23 23 23 27 24 25 26 27 28 28 26 25 27 29
27 26 25 25 26 26 26 26 25 25 26 27 25 22 18 15 20 28 23 25 26 27 27 27 24 24 26

GFSFLT2_sfc_30mbdewp_120.txt.gz
Dewpoint
45 45 44 44 43 42 42 42 44 46 47 46 45 43 42 41 41 42 43 47 49 50 53 57 57 57 55
44 43 43 43 42 41 40 38 41 43 44 46 43 42 39 38 38 39 41 45 48 49 53 56 56 57 57
43 42 41 41 39 38 37 37 37 38 41 42 42 39 36 36 35 37 39 43 46 49 52 56 57 57 56
41 41 40 40 39 38 37 36 36 36 35 38 41 39 34 34 33 34 37 41 44 48 50 53 54 55 56
39 39 38 38 37 37 37 36 36 35 34 34 33 34 30 31 34 34 34 38 42 47 48 50 53 54 54
37 37 37 37 37 37 36 36 36 33 32 32 29 29 28 31 34 34 32 36 38 45 46 47 49 53 54
36 36 36 37 37 37 36 35 35 33 31 31 27 26 27 28 33 34 31 33 36 40 45 45 47 50 52
36 37 37 38 37 37 36 35 33 30 30 30 28 26 26 27 31 35 32 33 34 38 41 43 45 47 48
34 33 33 34 36 36 34 33 33 32 28 28 27 26 25 26 28 34 35 35 35 37 37 40 40 42 45
28 31 33 35 37 36 34 33 33 31 30 27 25 24 18 25 28 30 31 36 36 36 36 37 36 35 37
27 29 30 29 30 31 33 33 33 32 29 26 24 26 25 25 26 29 30 31 31 33 35 36 35 34 34
26 26 28 27 27 28 29 30 32 33 31 27 24 23 23 22 21 27 29 30 30 31 31 34 35 35 35
25 25 26 26 27 27 27 28 28 28 30 29 26 26 24 21 24 26 26 29 29 30 30 30 31 32 32
24 25 29 28 27 25 23 25 23 24 27 26 27 27 25 26 26 25 26 22 27 29 30 30 31 30 31
25 25 26 27 27 26 25 24 23 23 23 25 27 27 27 25 23 25 26 26 27 27 29 28 29 30 30
26 25 26 26 25 25 25 25 23 23 25 24 24 22 21 23 27 24 25 24 26 28 28 25 24 26 29
27 25 25 25 26 25 25 25 24 24 25 25 24 21 18 14 21 28 23 24 25 26 27 27 24 24 25